{"data":{"norad_id":47391,"intl_designator":"2021-005AU","name":"STARLINK-2112","alt_names":[],"object_type":"PAYLOAD","status":"ACTIVE","operator":null,"country":"US","launch_date":"2021-01-20","launch_site_code":"AFETR","launch_vehicle":null,"mission":null,"orbit_class":"UNKNOWN","rcs_meters":null,"size_class":null,"mass_kg":null,"dimensions":null,"purposes":["comms"],"wikipedia_slug":null,"has_3d_model":false,"image_url":null,"decayed_at":null,"tle_current":{"epoch":"2026-09-19T15:22:26.637312Z","epoch_age_seconds":100090,"freshness":"FRESH","line1":"1 47391U 21005AU  26262.64058608  .00022074  00000+0  11595-2 0  9994","line2":"2 47391  53.0637 234.0385 0002217  74.1281 285.9956 15.15649914312791","mean_motion":15.15649914,"eccentricity":0.0002217,"inclination_deg":53.0637,"raan_deg":234.0385,"arg_perigee_deg":74.1281,"mean_anomaly_deg":285.9956,"bstar":0.0011595,"rev_number":31279,"period_min":95.008747514764,"perigee_km":517.4770851829,"apogee_km":520.53527846972,"semimajor_km":6897.1431818263,"source":"CELESTRAK","updated_at":"2026-09-20T09:00:38.594729Z"}}}